Terminal Aerodrome Forecast
Issued by NWS Buffalo, NY

Home | Current Version | Previous Version | Text Only | Print | Product List | Glossary On
Versions: 1 2 3 4 5 6 7 8 9 10 11 12 13 14 15 16 17 18 19 20 21 22 23 24 25 26 27 28
000
FTUS41 KBUF 011427 AAA
TAFROC
TAF AMD
KROC 011427Z 0114/0212 25011KT P6SM BKN025
     FM011800 26013G19KT P6SM VCTS OVC025CB
     FM012100 27014G20KT P6SM BKN035
     FM020200 27006KT P6SM SCT070
     FM020700 VRB03KT P6SM BKN250=

USA.gov is the U.S. government's official web portal to all federal, state and local government web resources and services.